Home   Weather   Olathe   Past weeks

Flag for USA Past Weather in Olathe, Kansas, USA — Yesterday and Last 2 Weeks

69 °F


Feels Like: 69 °F
Forecast: 57 / 74 °F
Wind: 12 mph from South

Location: Johnson County Executive Airport

Current Time: Oct 25, 2016 at 7:33:13 PM

Latest Report: Oct 25, 2016 at 6:53 PM

Visibility: 10 mi

Pressure: 30.04 "Hg

Humidity: 70%

Dew Point: 59 °F

Location of OlatheLocation

Past Weather in Olathe — Graph


Olathe Temperature Yesterday

Maximum temperature yesterday: 67 °F (at 2:53 PM)
Minimum temperature yesterday: 47 °F (at 7:53 AM)
Average temperature yesterday: 57 °F

High & Low Weather Summary for the Past Weeks

High85 °F (Oct 17, 3:53 PM)100% (Oct 14, 6:53 AM)30.35 "Hg (Oct 14, 6:53 AM)
Low38 °F (Oct 13, 6:53 AM)42% (Oct 20, 4:53 PM)29.39 "Hg (Oct 17, 4:53 PM)
Average61 °F71%30.03 "Hg
* Reported Oct 10 5:53 PM — Oct 25 5:53 PM, Olathe, Weather by CustomWeather, © 2016

Note: Actual official high and low records may vary slightly from our data, if they occured in-between our weather recording intervals... More about our weather records


Olathe Weather History for the Previous 24 Hours

Scroll right to see more
Time TempWeatherWind HumidityBarometerVisibility
5:53 PM
Tue, Oct 25
72 °FSunny.14 mph64%30.04 "Hg10 mi
4:53 PM74 °FScattered clouds.14 mph60%30.04 "Hg10 mi
3:53 PM74 °FScattered clouds.14 mph62%30.05 "Hg10 mi
2:53 PM74 °FPassing clouds.15 mph64%30.06 "Hg10 mi
1:53 PM73 °FSunny.14 mph64%30.09 "Hg10 mi
12:53 PM72 °FSunny.9 mph64%30.12 "Hg10 mi
11:53 AM70 °FPassing clouds.12 mph68%30.15 "Hg10 mi
10:53 AM67 °FPartly sunny.10 mph76%30.16 "Hg10 mi
9:53 AM63 °FPartly sunny.13 mph78%30.18 "Hg10 mi
8:53 AM58 °FPassing clouds.10 mph81%30.18 "Hg10 mi
7:53 AM56 °FOvercast.12 mph81%30.17 "Hg10 mi
6:53 AM56 °FOvercast.7 mph77%30.18 "Hg10 mi
5:53 AM55 °FOvercast.6 mph77%30.19 "Hg10 mi
4:53 AM55 °FOvercast.8 mph74%30.18 "Hg10 mi
3:53 AM54 °FOvercast.7 mph74%30.19 "Hg10 mi
2:53 AM53 °FClear.6 mph77%30.20 "Hg10 mi
1:53 AM54 °FClear.8 mph72%30.20 "Hg10 mi
12:53 AM54 °FClear.7 mph72%30.22 "Hg10 mi
11:53 PM
Mon, Oct 24
54 °FClear.7 mph72%30.24 "Hg10 mi
10:53 PM54 °FClear.7 mph72%30.24 "Hg10 mi
9:53 PM56 °FClear.8 mph65%30.25 "Hg10 mi
8:53 PM56 °FClear.6 mph67%30.26 "Hg10 mi
7:53 PM58 °FClear.7 mph62%30.26 "Hg10 mi
Weather by CustomWeather, © 2016

See weather overviewHow to use our weather pages